Year,Month,Day,Hour,Minute,Value (Times are PST for temperature in C)
2012,09,24,00,00,10.10
2012,09,24,00,01,10.10
2012,09,24,00,02,10.10
2012,09,24,00,03,10.10
2012,09,24,00,04,10.10
2012,09,24,00,05,10.10
2012,09,24,00,06,10.10
2012,09,24,00,07,10.10
2012,09,24,00,08,10.10
2012,09,24,00,09,10.00
2012,09,24,00,10,10.00
2012,09,24,00,11,10.00
2012,09,24,00,12,10.00
2012,09,24,00,13,10.00
2012,09,24,00,14,10.00
2012,09,24,00,15,9.90
2012,09,24,00,16,9.90
2012,09,24,00,17,9.90
2012,09,24,00,18,9.90
2012,09,24,00,19,9.90
2012,09,24,00,20,9.90
2012,09,24,00,21,9.90
2012,09,24,00,22,9.90
2012,09,24,00,23,9.80
2012,09,24,00,24,9.80
2012,09,24,00,25,9.80
2012,09,24,00,26,9.80
2012,09,24,00,27,9.80
2012,09,24,00,28,9.80
2012,09,24,00,29,9.80
2012,09,24,00,30,9.70
2012,09,24,00,31,9.70
2012,09,24,00,32,9.70
2012,09,24,00,33,9.70
2012,09,24,00,34,9.70
2012,09,24,00,35,9.70
2012,09,24,00,36,9.70
2012,09,24,00,37,9.70
2012,09,24,00,38,9.70
2012,09,24,00,39,9.70
2012,09,24,00,40,9.70
2012,09,24,00,41,9.60
2012,09,24,00,42,9.60
2012,09,24,00,43,9.60
2012,09,24,00,44,9.60
2012,09,24,00,45,9.60
2012,09,24,00,46,9.60
2012,09,24,00,47,9.60
2012,09,24,00,48,9.60
2012,09,24,00,49,9.60
2012,09,24,00,50,9.60
2012,09,24,00,51,9.60
2012,09,24,00,52,9.60
2012,09,24,00,53,9.60
2012,09,24,00,54,9.60
2012,09,24,00,55,9.60
2012,09,24,00,56,9.60
2012,09,24,00,57,9.60
2012,09,24,00,58,9.70
2012,09,24,00,59,9.70
2012,09,24,01,00,9.70
2012,09,24,01,01,9.70
2012,09,24,01,02,9.70
2012,09,24,01,03,9.70
2012,09,24,01,04,9.70
2012,09,24,01,05,9.70
2012,09,24,01,06,9.70
2012,09,24,01,07,9.70
2012,09,24,01,08,9.70
2012,09,24,01,09,9.70
2012,09,24,01,10,9.70
2012,09,24,01,11,9.70
2012,09,24,01,12,9.70
2012,09,24,01,13,9.70
2012,09,24,01,14,9.70
2012,09,24,01,15,9.70
2012,09,24,01,16,9.70
2012,09,24,01,17,9.70
2012,09,24,01,18,9.70
2012,09,24,01,19,9.70
2012,09,24,01,20,9.70
2012,09,24,01,21,9.60
2012,09,24,01,22,9.60
2012,09,24,01,23,9.60
2012,09,24,01,24,9.60
2012,09,24,01,25,9.60
2012,09,24,01,26,9.60
2012,09,24,01,27,9.60
2012,09,24,01,28,9.60
2012,09,24,01,29,9.60
2012,09,24,01,30,9.60
2012,09,24,01,31,9.60
2012,09,24,01,32,9.60
2012,09,24,01,33,9.60
2012,09,24,01,34,9.60
2012,09,24,01,35,9.60
2012,09,24,01,36,9.60
2012,09,24,01,37,9.60
2012,09,24,01,38,9.60
2012,09,24,01,39,9.60
2012,09,24,01,40,9.60
2012,09,24,01,41,9.60
2012,09,24,01,42,9.60
2012,09,24,01,43,9.60
2012,09,24,01,44,9.50
2012,09,24,01,45,9.50
2012,09,24,01,46,9.50
2012,09,24,01,47,9.50
2012,09,24,01,48,9.40
2012,09,24,01,49,9.40
2012,09,24,01,50,9.40
2012,09,24,01,51,9.40
2012,09,24,01,52,9.40
2012,09,24,01,53,9.30
2012,09,24,01,54,9.30
2012,09,24,01,55,9.30
2012,09,24,01,56,9.30
2012,09,24,01,57,9.30
2012,09,24,01,58,9.30
2012,09,24,01,59,9.30
2012,09,24,02,00,9.30
2012,09,24,02,01,9.20
2012,09,24,02,02,9.20
2012,09,24,02,03,9.20
2012,09,24,02,04,9.20
2012,09,24,02,05,9.20
2012,09,24,02,06,9.20
2012,09,24,02,07,9.20
2012,09,24,02,08,9.20
2012,09,24,02,09,9.20
2012,09,24,02,10,9.20
2012,09,24,02,11,9.20
2012,09,24,02,12,9.20
2012,09,24,02,13,9.20
2012,09,24,02,14,9.10
2012,09,24,02,15,9.10
2012,09,24,02,16,9.10
2012,09,24,02,17,9.10
2012,09,24,02,18,9.10
2012,09,24,02,19,9.10
2012,09,24,02,20,9.10
2012,09,24,02,21,9.10
2012,09,24,02,22,9.10
2012,09,24,02,23,9.00
2012,09,24,02,24,9.00
2012,09,24,02,25,9.00
2012,09,24,02,26,9.00
2012,09,24,02,27,9.00
2012,09,24,02,28,9.00
2012,09,24,02,29,9.00
2012,09,24,02,30,8.90
2012,09,24,02,31,8.90
2012,09,24,02,32,8.90
2012,09,24,02,33,8.90
2012,09,24,02,34,8.90
2012,09,24,02,35,8.90
2012,09,24,02,36,8.90
2012,09,24,02,37,8.90
2012,09,24,02,38,8.90
2012,09,24,02,39,8.90
2012,09,24,02,40,8.90
2012,09,24,02,41,8.90
2012,09,24,02,42,8.90
2012,09,24,02,43,8.90
2012,09,24,02,44,8.90
2012,09,24,02,45,8.90
2012,09,24,02,46,8.90
2012,09,24,02,47,8.90
2012,09,24,02,48,8.90
2012,09,24,02,49,8.80
2012,09,24,02,50,8.80
2012,09,24,02,51,8.80
2012,09,24,02,52,8.80
2012,09,24,02,53,8.80
2012,09,24,02,54,8.80
2012,09,24,02,55,8.80
2012,09,24,02,56,8.70
2012,09,24,02,57,8.70
2012,09,24,02,58,8.70
2012,09,24,02,59,8.70
2012,09,24,03,00,8.70
2012,09,24,03,01,8.70
2012,09,24,03,02,8.70
2012,09,24,03,03,8.70
2012,09,24,03,04,8.70
2012,09,24,03,05,8.70
2012,09,24,03,06,8.60
2012,09,24,03,07,8.60
2012,09,24,03,08,8.60
2012,09,24,03,09,8.60
2012,09,24,03,10,8.60
2012,09,24,03,11,8.60
2012,09,24,03,12,8.60
2012,09,24,03,13,8.60
2012,09,24,03,14,8.60
2012,09,24,03,15,8.50
2012,09,24,03,16,8.50
2012,09,24,03,17,8.50
2012,09,24,03,18,8.50
2012,09,24,03,19,8.50
2012,09,24,03,20,8.40
2012,09,24,03,21,8.40
2012,09,24,03,22,8.40
2012,09,24,03,23,8.40
2012,09,24,03,24,8.40
2012,09,24,03,25,8.40
2012,09,24,03,26,8.40
2012,09,24,03,27,8.40
2012,09,24,03,28,8.40
2012,09,24,03,29,8.40
2012,09,24,03,30,8.40
2012,09,24,03,31,8.40
2012,09,24,03,32,8.40
2012,09,24,03,33,8.40
2012,09,24,03,34,8.40
2012,09,24,03,35,8.40
2012,09,24,03,36,8.40
2012,09,24,03,37,8.40
2012,09,24,03,38,8.40
2012,09,24,03,39,8.40
2012,09,24,03,40,8.40
2012,09,24,03,41,8.40
2012,09,24,03,42,8.40
2012,09,24,03,43,8.40
2012,09,24,03,44,8.40
2012,09,24,03,45,8.40
2012,09,24,03,46,8.40
2012,09,24,03,47,8.40
2012,09,24,03,48,8.40
2012,09,24,03,49,8.40
2012,09,24,03,50,8.40
2012,09,24,03,51,8.40
2012,09,24,03,52,8.40
2012,09,24,03,53,8.40
2012,09,24,03,54,8.40
2012,09,24,03,55,8.40
2012,09,24,03,56,8.40
2012,09,24,03,57,8.40
2012,09,24,03,58,8.40
2012,09,24,03,59,8.40
2012,09,24,04,00,8.40
2012,09,24,04,01,8.40
2012,09,24,04,02,8.40
2012,09,24,04,03,8.40
2012,09,24,04,04,8.40
2012,09,24,04,05,8.40
2012,09,24,04,06,8.40
2012,09,24,04,07,8.40
2012,09,24,04,08,8.40
2012,09,24,04,09,8.40
2012,09,24,04,10,8.40
2012,09,24,04,11,8.40
2012,09,24,04,12,8.40
2012,09,24,04,13,8.40
2012,09,24,04,14,8.40
2012,09,24,04,15,8.40
2012,09,24,04,16,8.30
2012,09,24,04,17,8.30
2012,09,24,04,18,8.30
2012,09,24,04,19,8.30
2012,09,24,04,20,8.30
2012,09,24,04,21,8.30
2012,09,24,04,22,8.40
2012,09,24,04,23,8.40
2012,09,24,04,24,8.30
2012,09,24,04,25,8.30
2012,09,24,04,26,8.30
2012,09,24,04,27,8.30
2012,09,24,04,28,8.30
2012,09,24,04,29,8.30
2012,09,24,04,30,8.30
2012,09,24,04,31,8.30
2012,09,24,04,32,8.30
2012,09,24,04,33,8.30
2012,09,24,04,34,8.30
2012,09,24,04,35,8.30
2012,09,24,04,36,8.30
2012,09,24,04,37,8.30
2012,09,24,04,38,8.30
2012,09,24,04,39,8.30
2012,09,24,04,40,8.30
2012,09,24,04,41,8.30
2012,09,24,04,42,8.30
2012,09,24,04,43,8.20
2012,09,24,04,44,8.20
2012,09,24,04,45,8.20
2012,09,24,04,46,8.20
2012,09,24,04,47,8.20
2012,09,24,04,48,8.20
2012,09,24,04,49,8.10
2012,09,24,04,50,8.10
2012,09,24,04,51,8.10
2012,09,24,04,52,8.10
2012,09,24,04,53,8.10
2012,09,24,04,54,8.10
2012,09,24,04,55,8.10
2012,09,24,04,56,8.10
2012,09,24,04,57,8.10
2012,09,24,04,58,8.10
2012,09,24,04,59,8.10
2012,09,24,05,00,8.20
2012,09,24,05,01,8.20
2012,09,24,05,02,8.20
2012,09,24,05,03,8.20
2012,09,24,05,04,8.20
2012,09,24,05,05,8.20
2012,09,24,05,06,8.20
2012,09,24,05,07,8.20
2012,09,24,05,08,8.20
2012,09,24,05,09,8.20
2012,09,24,05,10,8.20
2012,09,24,05,11,8.20
2012,09,24,05,12,8.20
2012,09,24,05,13,8.20
2012,09,24,05,14,8.20
2012,09,24,05,15,8.20
2012,09,24,05,16,8.20
2012,09,24,05,17,8.20
2012,09,24,05,18,8.10
2012,09,24,05,19,8.10
2012,09,24,05,20,8.10
2012,09,24,05,21,8.10
2012,09,24,05,22,8.10
2012,09,24,05,23,8.10
2012,09,24,05,24,8.10
2012,09,24,05,25,8.10
2012,09,24,05,26,8.10
2012,09,24,05,27,8.10
2012,09,24,05,28,8.10
2012,09,24,05,29,8.10
2012,09,24,05,30,8.10
2012,09,24,05,31,8.10
2012,09,24,05,32,8.10
2012,09,24,05,33,8.10
2012,09,24,05,34,8.00
2012,09,24,05,35,8.00
2012,09,24,05,36,8.00
2012,09,24,05,37,8.00
2012,09,24,05,38,7.90
2012,09,24,05,39,7.90
2012,09,24,05,40,7.90
2012,09,24,05,41,7.90
2012,09,24,05,42,7.90
2012,09,24,05,43,7.90
2012,09,24,05,44,7.80
2012,09,24,05,45,7.80
2012,09,24,05,46,7.80
2012,09,24,05,47,7.80
2012,09,24,05,48,7.80
2012,09,24,05,49,7.80
2012,09,24,05,50,7.80
2012,09,24,05,51,7.80
2012,09,24,05,52,7.80
2012,09,24,05,53,7.80
2012,09,24,05,54,7.80
2012,09,24,05,55,7.80
2012,09,24,05,56,7.80
2012,09,24,05,57,7.80
2012,09,24,05,58,7.80
2012,09,24,05,59,7.80
2012,09,24,06,00,7.80
2012,09,24,06,01,7.80
2012,09,24,06,02,7.80
2012,09,24,06,03,7.80
2012,09,24,06,04,7.80
2012,09,24,06,05,7.80
2012,09,24,06,06,7.80
2012,09,24,06,07,7.80
2012,09,24,06,08,7.80
2012,09,24,06,09,7.70
2012,09,24,06,10,7.70
2012,09,24,06,11,7.70
2012,09,24,06,12,7.70
2012,09,24,06,13,7.70
2012,09,24,06,14,7.70
2012,09,24,06,15,7.70
2012,09,24,06,16,7.70
2012,09,24,06,17,7.70
2012,09,24,06,18,7.70
2012,09,24,06,19,7.70
2012,09,24,06,20,7.70
2012,09,24,06,21,7.70
2012,09,24,06,22,7.70
2012,09,24,06,23,7.70
2012,09,24,06,24,7.70
2012,09,24,06,25,7.70
2012,09,24,06,26,7.70
2012,09,24,06,27,7.70
2012,09,24,06,28,7.70
2012,09,24,06,29,7.70
2012,09,24,06,30,7.70
2012,09,24,06,31,7.70
2012,09,24,06,32,7.70
2012,09,24,06,33,7.70
2012,09,24,06,34,7.70
2012,09,24,06,35,7.70
2012,09,24,06,36,7.70
2012,09,24,06,37,7.70
2012,09,24,06,38,7.70
2012,09,24,06,39,7.60
2012,09,24,06,40,7.60
2012,09,24,06,41,7.60
2012,09,24,06,42,7.60
2012,09,24,06,43,7.60
2012,09,24,06,44,7.60
2012,09,24,06,45,7.60
2012,09,24,06,46,7.60
2012,09,24,06,47,7.50
2012,09,24,06,48,7.50
2012,09,24,06,49,7.50
2012,09,24,06,50,7.50
2012,09,24,06,51,7.50
2012,09,24,06,52,7.50
2012,09,24,06,53,7.50
2012,09,24,06,54,7.50
2012,09,24,06,55,7.50
2012,09,24,06,56,7.50
2012,09,24,06,57,7.40
2012,09,24,06,58,7.40
2012,09,24,06,59,7.40
2012,09,24,07,00,7.40
2012,09,24,07,01,7.40
2012,09,24,07,02,7.40
2012,09,24,07,03,7.40
2012,09,24,07,04,7.40
2012,09,24,07,05,7.40
2012,09,24,07,06,7.40
2012,09,24,07,07,7.40
2012,09,24,07,08,7.40
2012,09,24,07,09,7.40
2012,09,24,07,10,7.40
2012,09,24,07,11,7.40
2012,09,24,07,12,7.40
2012,09,24,07,13,7.40
2012,09,24,07,14,7.40
2012,09,24,07,15,7.40
2012,09,24,07,16,7.30
2012,09,24,07,17,7.30
2012,09,24,07,18,7.30
2012,09,24,07,19,7.30
2012,09,24,07,20,7.30
2012,09,24,07,21,7.30
2012,09,24,07,22,7.30
2012,09,24,07,23,7.30
2012,09,24,07,24,7.40
2012,09,24,07,25,7.40
2012,09,24,07,26,7.40
2012,09,24,07,27,7.50
2012,09,24,07,28,7.50
2012,09,24,07,29,7.50
2012,09,24,07,30,7.60
2012,09,24,07,31,7.60
2012,09,24,07,32,7.60
2012,09,24,07,33,7.60
2012,09,24,07,34,7.60
2012,09,24,07,35,7.60
2012,09,24,07,36,7.60
2012,09,24,07,37,7.70
2012,09,24,07,38,7.70
2012,09,24,07,39,7.70
2012,09,24,07,40,7.70
2012,09,24,07,41,7.70
2012,09,24,07,42,7.70
2012,09,24,07,43,7.80
2012,09,24,07,44,7.80
2012,09,24,07,45,7.80
2012,09,24,07,46,7.80
2012,09,24,07,47,7.80
2012,09,24,07,48,7.80
2012,09,24,07,49,7.90
2012,09,24,07,50,7.90
2012,09,24,07,51,7.90
2012,09,24,07,52,7.90
2012,09,24,07,53,7.90
2012,09,24,07,54,7.90
2012,09,24,07,55,8.00
2012,09,24,07,56,8.00
2012,09,24,07,57,8.00
2012,09,24,07,58,8.10
2012,09,24,07,59,8.10
2012,09,24,08,00,8.10
2012,09,24,08,01,8.10
2012,09,24,08,02,8.10
2012,09,24,08,03,8.20
2012,09,24,08,04,8.20
2012,09,24,08,05,8.20
2012,09,24,08,06,8.20
2012,09,24,08,07,8.30
2012,09,24,08,08,8.30
2012,09,24,08,09,8.30
2012,09,24,08,10,8.40
2012,09,24,08,11,8.40
2012,09,24,08,12,8.50
2012,09,24,08,13,8.50
2012,09,24,08,14,8.60
2012,09,24,08,15,8.60
2012,09,24,08,16,8.70
2012,09,24,08,17,8.70
2012,09,24,08,18,8.70
2012,09,24,08,19,8.80
2012,09,24,08,20,8.80
2012,09,24,08,21,8.90
2012,09,24,08,22,8.90
2012,09,24,08,23,9.00
2012,09,24,08,24,9.00
2012,09,24,08,25,9.10
2012,09,24,08,26,9.10
2012,09,24,08,27,9.20
2012,09,24,08,28,9.20
2012,09,24,08,29,9.30
2012,09,24,08,30,9.30
2012,09,24,08,31,9.40
2012,09,24,08,32,9.50
2012,09,24,08,33,9.50
2012,09,24,08,34,9.60
2012,09,24,08,35,9.60
2012,09,24,08,36,9.70
2012,09,24,08,37,9.70
2012,09,24,08,38,9.80
2012,09,24,08,39,9.90
2012,09,24,08,40,9.90
2012,09,24,08,41,10.00
2012,09,24,08,42,10.10
2012,09,24,08,43,10.20
2012,09,24,08,44,10.30
2012,09,24,08,45,10.40
2012,09,24,08,46,10.40
2012,09,24,08,47,10.40
2012,09,24,08,48,10.50
2012,09,24,08,49,10.50
2012,09,24,08,50,10.60
2012,09,24,08,51,10.60
2012,09,24,08,52,10.60
2012,09,24,08,53,10.70
2012,09,24,08,54,10.70
2012,09,24,08,55,10.80
2012,09,24,08,56,10.80
2012,09,24,08,57,10.90
2012,09,24,08,58,10.90
2012,09,24,08,59,11.00
2012,09,24,09,00,11.00
2012,09,24,09,01,11.10
2012,09,24,09,02,11.10
2012,09,24,09,03,11.20
2012,09,24,09,04,11.30
2012,09,24,09,05,11.30
2012,09,24,09,06,11.40
2012,09,24,09,07,11.50
2012,09,24,09,08,11.50
2012,09,24,09,09,11.60
2012,09,24,09,10,11.60
2012,09,24,09,11,11.70
2012,09,24,09,12,11.80
2012,09,24,09,13,11.80
2012,09,24,09,14,11.80
2012,09,24,09,15,11.80
2012,09,24,09,16,11.70
2012,09,24,09,17,11.60
2012,09,24,09,18,11.50
2012,09,24,09,19,11.30
2012,09,24,09,20,11.20
2012,09,24,09,21,11.20
2012,09,24,09,22,11.20
2012,09,24,09,23,11.20
2012,09,24,09,24,11.20
2012,09,24,09,25,11.30
2012,09,24,09,26,11.40
2012,09,24,09,27,11.40
2012,09,24,09,28,11.50
2012,09,24,09,29,11.60
2012,09,24,09,30,11.70
2012,09,24,09,31,11.80
2012,09,24,09,32,11.80
2012,09,24,09,33,11.90
2012,09,24,09,34,11.90
2012,09,24,09,35,12.00
2012,09,24,09,36,12.00
2012,09,24,09,37,12.10
2012,09,24,09,38,12.20
2012,09,24,09,39,12.20
2012,09,24,09,40,12.20
2012,09,24,09,41,12.20
2012,09,24,09,42,12.10
2012,09,24,09,43,12.10
2012,09,24,09,44,12.00
2012,09,24,09,45,12.00
2012,09,24,09,46,12.10
2012,09,24,09,47,12.20
2012,09,24,09,48,12.20
2012,09,24,09,49,12.30
2012,09,24,09,50,12.30
2012,09,24,09,51,12.40
2012,09,24,09,52,12.40
2012,09,24,09,53,12.40
2012,09,24,09,54,12.40
2012,09,24,09,55,12.40
2012,09,24,09,56,12.40
2012,09,24,09,57,12.40
2012,09,24,09,58,12.40
2012,09,24,09,59,12.50
2012,09,24,10,00,12.60
2012,09,24,10,01,12.70
2012,09,24,10,02,12.70
2012,09,24,10,03,12.80
2012,09,24,10,04,12.90
2012,09,24,10,05,13.00
2012,09,24,10,06,13.10
2012,09,24,10,07,13.20
2012,09,24,10,08,13.20
2012,09,24,10,09,13.20
2012,09,24,10,10,13.10
2012,09,24,10,11,12.90
2012,09,24,10,12,12.80
2012,09,24,10,13,12.70
2012,09,24,10,14,12.60
2012,09,24,10,15,12.50
2012,09,24,10,16,12.40
2012,09,24,10,17,12.40
2012,09,24,10,18,12.40
2012,09,24,10,19,12.40
2012,09,24,10,20,12.40
2012,09,24,10,21,12.40
2012,09,24,10,22,12.40
2012,09,24,10,23,12.40
2012,09,24,10,24,12.40
2012,09,24,10,25,12.40
2012,09,24,10,26,12.30
2012,09,24,10,27,12.30
2012,09,24,10,28,12.20
2012,09,24,10,29,12.30
2012,09,24,10,30,12.30
2012,09,24,10,31,12.30
2012,09,24,10,32,12.30
2012,09,24,10,33,12.30
2012,09,24,10,34,12.30
2012,09,24,10,35,12.30
2012,09,24,10,36,12.40
2012,09,24,10,37,12.40
2012,09,24,10,38,12.40
2012,09,24,10,39,12.40
2012,09,24,10,40,12.40
2012,09,24,10,41,12.40
2012,09,24,10,42,12.40
2012,09,24,10,43,12.40
2012,09,24,10,44,12.40
2012,09,24,10,45,12.50
2012,09,24,10,46,12.50
2012,09,24,10,47,12.40
2012,09,24,10,48,12.40
2012,09,24,10,49,12.40
2012,09,24,10,50,12.40
2012,09,24,10,51,12.40
2012,09,24,10,52,12.50
2012,09,24,10,53,12.50
2012,09,24,10,54,12.60
2012,09,24,10,55,12.60
2012,09,24,10,56,12.70
2012,09,24,10,57,12.70
2012,09,24,10,58,12.60
2012,09,24,10,59,12.70
2012,09,24,11,00,12.70
2012,09,24,11,01,12.70
2012,09,24,11,02,12.70
2012,09,24,11,03,12.70
2012,09,24,11,04,12.60
2012,09,24,11,05,12.60
2012,09,24,11,06,12.60
2012,09,24,11,07,12.60
2012,09,24,11,08,12.60
2012,09,24,11,09,12.60
2012,09,24,11,10,12.60
2012,09,24,11,11,12.60
2012,09,24,11,12,12.60
2012,09,24,11,13,12.60
2012,09,24,11,14,12.60
2012,09,24,11,15,12.60
2012,09,24,11,16,12.50
2012,09,24,11,17,12.50
2012,09,24,11,18,12.40
2012,09,24,11,19,12.40
2012,09,24,11,20,12.40
2012,09,24,11,21,12.40
2012,09,24,11,22,12.40
2012,09,24,11,23,12.30
2012,09,24,11,24,12.30
2012,09,24,11,25,12.30
2012,09,24,11,26,12.30
2012,09,24,11,27,12.30
2012,09,24,11,28,12.40
2012,09,24,11,29,12.40
2012,09,24,11,30,12.50
2012,09,24,11,31,12.50
2012,09,24,11,32,12.60
2012,09,24,11,33,12.50
2012,09,24,11,34,12.50
2012,09,24,11,35,12.40
2012,09,24,11,36,12.40
2012,09,24,11,37,12.40
2012,09,24,11,38,12.40
2012,09,24,11,39,12.40
2012,09,24,11,40,12.40
2012,09,24,11,41,12.50
2012,09,24,11,42,12.50
2012,09,24,11,43,12.40
2012,09,24,11,44,12.40
2012,09,24,11,45,12.40
2012,09,24,11,46,12.40
2012,09,24,11,47,12.40
2012,09,24,11,48,12.50
2012,09,24,11,49,12.50
2012,09,24,11,50,12.60
2012,09,24,11,51,12.60
2012,09,24,11,52,12.70
2012,09,24,11,53,12.70
2012,09,24,11,54,12.80
2012,09,24,11,55,12.80
2012,09,24,11,56,12.90
2012,09,24,11,57,13.00
2012,09,24,11,58,13.00
2012,09,24,11,59,13.10
2012,09,24,12,00,13.20
2012,09,24,12,01,13.30
2012,09,24,12,02,13.30
2012,09,24,12,03,13.30
2012,09,24,12,04,13.40
2012,09,24,12,05,13.40
2012,09,24,12,06,13.40
2012,09,24,12,07,13.40
2012,09,24,12,08,13.40
2012,09,24,12,09,13.40
2012,09,24,12,10,13.40
2012,09,24,12,11,13.40
2012,09,24,12,12,13.40
2012,09,24,12,13,13.40
2012,09,24,12,14,13.40
2012,09,24,12,15,13.40
2012,09,24,12,16,13.40
2012,09,24,12,17,13.50
2012,09,24,12,18,13.50
2012,09,24,12,19,13.50
2012,09,24,12,20,13.60
2012,09,24,12,21,13.60
2012,09,24,12,22,13.70
2012,09,24,12,23,13.80
2012,09,24,12,24,13.90
2012,09,24,12,25,13.90
2012,09,24,12,26,14.10
2012,09,24,12,27,14.20
2012,09,24,12,28,14.30
2012,09,24,12,29,14.40
2012,09,24,12,30,14.40
2012,09,24,12,31,14.50
2012,09,24,12,32,14.60
2012,09,24,12,33,14.60
2012,09,24,12,34,14.60
2012,09,24,12,35,14.60
2012,09,24,12,36,14.60
2012,09,24,12,37,14.60
2012,09,24,12,38,14.60
2012,09,24,12,39,14.60
2012,09,24,12,40,14.60
2012,09,24,12,41,14.70
2012,09,24,12,42,14.70
2012,09,24,12,43,14.70
2012,09,24,12,44,14.70
2012,09,24,12,45,14.70
2012,09,24,12,46,14.70
2012,09,24,12,47,14.60
2012,09,24,12,48,14.50
2012,09,24,12,49,14.50
2012,09,24,12,50,14.40
2012,09,24,12,51,14.30
2012,09,24,12,52,14.20
2012,09,24,12,53,14.10
2012,09,24,12,54,14.10
2012,09,24,12,55,14.10
2012,09,24,12,56,14.00
2012,09,24,12,57,13.90
2012,09,24,12,58,13.90
2012,09,24,12,59,13.80
2012,09,24,13,00,13.70
2012,09,24,13,01,13.60
2012,09,24,13,02,13.60
2012,09,24,13,03,13.50
2012,09,24,13,04,13.50
2012,09,24,13,05,13.50
2012,09,24,13,06,13.60
2012,09,24,13,07,13.60
2012,09,24,13,08,13.60
2012,09,24,13,09,13.70
2012,09,24,13,10,13.80
2012,09,24,13,11,13.80
2012,09,24,13,12,13.90
2012,09,24,13,13,14.00
2012,09,24,13,14,14.00
2012,09,24,13,15,14.10
2012,09,24,13,16,14.20
2012,09,24,13,17,14.20
2012,09,24,13,18,14.20
2012,09,24,13,19,14.20
2012,09,24,13,20,14.20
2012,09,24,13,21,14.10
2012,09,24,13,22,14.00
2012,09,24,13,23,14.00
2012,09,24,13,24,14.00
2012,09,24,13,25,14.10
2012,09,24,13,26,14.10
2012,09,24,13,27,14.20
2012,09,24,13,28,14.30
2012,09,24,13,29,14.40
2012,09,24,13,30,14.50
2012,09,24,13,31,14.60
2012,09,24,13,32,14.60
2012,09,24,13,33,14.70
2012,09,24,13,34,14.80
2012,09,24,13,35,14.80
2012,09,24,13,36,14.90
2012,09,24,13,37,15.00
2012,09,24,13,38,15.00
2012,09,24,13,39,15.00
2012,09,24,13,40,15.00
2012,09,24,13,41,15.00
2012,09,24,13,42,15.00
2012,09,24,13,43,15.00
2012,09,24,13,44,15.00
2012,09,24,13,45,15.00
2012,09,24,13,46,14.90
2012,09,24,13,47,14.70
2012,09,24,13,48,14.60
2012,09,24,13,49,14.40
2012,09,24,13,50,14.30
2012,09,24,13,51,14.20
2012,09,24,13,52,14.00
2012,09,24,13,53,13.90
2012,09,24,13,54,13.80
2012,09,24,13,55,13.80
2012,09,24,13,56,13.80
2012,09,24,13,57,13.70
2012,09,24,13,58,13.70
2012,09,24,13,59,13.70
2012,09,24,14,00,13.70
2012,09,24,14,01,13.70
2012,09,24,14,02,13.80
2012,09,24,14,03,13.80
2012,09,24,14,04,13.80
2012,09,24,14,05,13.70
2012,09,24,14,06,13.70
2012,09,24,14,07,13.70
2012,09,24,14,08,13.60
2012,09,24,14,09,13.50
2012,09,24,14,10,13.40
2012,09,24,14,11,13.40
2012,09,24,14,12,13.40
2012,09,24,14,13,13.40
2012,09,24,14,14,13.40
2012,09,24,14,15,13.50
2012,09,24,14,16,13.50
2012,09,24,14,17,13.60
2012,09,24,14,18,13.70
2012,09,24,14,19,13.80
2012,09,24,14,20,13.90
2012,09,24,14,21,14.00
2012,09,24,14,22,14.10
2012,09,24,14,23,14.10
2012,09,24,14,24,14.10
2012,09,24,14,25,14.10
2012,09,24,14,26,14.10
2012,09,24,14,27,14.10
2012,09,24,14,28,14.10
2012,09,24,14,29,14.00
2012,09,24,14,30,14.00
2012,09,24,14,31,14.10
2012,09,24,14,32,14.20
2012,09,24,14,33,14.30
2012,09,24,14,34,14.40
2012,09,24,14,35,14.50
2012,09,24,14,36,14.60
2012,09,24,14,37,14.60
2012,09,24,14,38,14.60
2012,09,24,14,39,14.60
2012,09,24,14,40,14.60
2012,09,24,14,41,14.70
2012,09,24,14,42,14.80
2012,09,24,14,43,15.00
2012,09,24,14,44,15.00
2012,09,24,14,45,15.00
2012,09,24,14,46,15.00
2012,09,24,14,47,15.00
2012,09,24,14,48,14.90
2012,09,24,14,49,14.90
2012,09,24,14,50,14.80
2012,09,24,14,51,14.80
2012,09,24,14,52,14.80
2012,09,24,14,53,14.80
2012,09,24,14,54,14.80
2012,09,24,14,55,14.80
2012,09,24,14,56,14.70
2012,09,24,14,57,14.60
2012,09,24,14,58,14.50
2012,09,24,14,59,14.40
2012,09,24,15,00,14.40
2012,09,24,15,01,14.40
2012,09,24,15,02,14.40
2012,09,24,15,03,14.40
2012,09,24,15,04,14.40
2012,09,24,15,05,14.30
2012,09,24,15,06,14.30
2012,09,24,15,07,14.20
2012,09,24,15,08,14.20
2012,09,24,15,09,14.20
2012,09,24,15,10,14.30
2012,09,24,15,11,14.20
2012,09,24,15,12,14.20
2012,09,24,15,13,14.20
2012,09,24,15,14,14.00
2012,09,24,15,15,13.90
2012,09,24,15,16,13.80
2012,09,24,15,17,13.70
2012,09,24,15,18,13.60
2012,09,24,15,19,13.60
2012,09,24,15,20,13.50
2012,09,24,15,21,13.50
2012,09,24,15,22,13.40
2012,09,24,15,23,13.30
2012,09,24,15,24,13.20
2012,09,24,15,25,13.10
2012,09,24,15,26,13.00
2012,09,24,15,27,13.00
2012,09,24,15,28,13.00
2012,09,24,15,29,13.00
2012,09,24,15,30,13.00
2012,09,24,15,31,13.00
2012,09,24,15,32,13.10
2012,09,24,15,33,13.10
2012,09,24,15,34,13.10
2012,09,24,15,35,13.10
2012,09,24,15,36,13.10
2012,09,24,15,37,13.00
2012,09,24,15,38,12.90
2012,09,24,15,39,12.90
2012,09,24,15,40,12.90
2012,09,24,15,41,12.90
2012,09,24,15,42,12.90
2012,09,24,15,43,12.90
2012,09,24,15,44,13.00
2012,09,24,15,45,13.00
2012,09,24,15,46,13.00
2012,09,24,15,47,13.10
2012,09,24,15,48,13.10
2012,09,24,15,49,13.10
2012,09,24,15,50,13.20
2012,09,24,15,51,13.20
2012,09,24,15,52,13.30
2012,09,24,15,53,13.30
2012,09,24,15,54,13.40
2012,09,24,15,55,13.50
2012,09,24,15,56,13.50
2012,09,24,15,57,13.60
2012,09,24,15,58,13.80
2012,09,24,15,59,13.90
2012,09,24,16,00,14.00
2012,09,24,16,01,14.10
2012,09,24,16,02,14.20
2012,09,24,16,03,14.30
2012,09,24,16,04,14.30
2012,09,24,16,05,14.40
2012,09,24,16,06,14.60
2012,09,24,16,07,14.70
2012,09,24,16,08,14.80
2012,09,24,16,09,15.00
2012,09,24,16,10,15.00
2012,09,24,16,11,15.10
2012,09,24,16,12,15.30
2012,09,24,16,13,15.40
2012,09,24,16,14,15.40
2012,09,24,16,15,15.50
2012,09,24,16,16,15.60
2012,09,24,16,17,15.70
2012,09,24,16,18,15.70
2012,09,24,16,19,15.80
2012,09,24,16,20,15.90
2012,09,24,16,21,16.00
2012,09,24,16,22,16.10
2012,09,24,16,23,16.10
2012,09,24,16,24,16.20
2012,09,24,16,25,16.20
2012,09,24,16,26,16.20
2012,09,24,16,27,16.30
2012,09,24,16,28,16.30
2012,09,24,16,29,16.40
2012,09,24,16,30,16.40
2012,09,24,16,31,16.50
2012,09,24,16,32,16.50
2012,09,24,16,33,16.60
2012,09,24,16,34,16.60
2012,09,24,16,35,16.60
2012,09,24,16,36,16.50
2012,09,24,16,37,16.40
2012,09,24,16,38,16.30
2012,09,24,16,39,16.20
2012,09,24,16,40,16.10
2012,09,24,16,41,16.00
2012,09,24,16,42,15.90
2012,09,24,16,43,15.80
2012,09,24,16,44,15.70
2012,09,24,16,45,15.60
2012,09,24,16,46,15.50
2012,09,24,16,47,15.40
2012,09,24,16,48,15.30
2012,09,24,16,49,15.20
2012,09,24,16,50,15.20
2012,09,24,16,51,15.20
2012,09,24,16,52,15.10
2012,09,24,16,53,15.10
2012,09,24,16,54,15.00
2012,09,24,16,55,15.00
2012,09,24,16,56,15.00
2012,09,24,16,57,15.10
2012,09,24,16,58,15.20
2012,09,24,16,59,15.30
2012,09,24,17,00,15.40
2012,09,24,17,01,15.50
2012,09,24,17,02,15.60
2012,09,24,17,03,15.80
2012,09,24,17,04,15.90
2012,09,24,17,05,16.00
2012,09,24,17,06,16.10
2012,09,24,17,07,16.20
2012,09,24,17,08,16.30
2012,09,24,17,09,16.40
2012,09,24,17,10,16.50
2012,09,24,17,11,16.60
2012,09,24,17,12,16.70
2012,09,24,17,13,16.80
2012,09,24,17,14,16.80
2012,09,24,17,15,16.90
2012,09,24,17,16,16.90
2012,09,24,17,17,17.00
2012,09,24,17,18,17.00
2012,09,24,17,19,17.00
2012,09,24,17,20,17.10
2012,09,24,17,21,17.10
2012,09,24,17,22,17.10
2012,09,24,17,23,17.10
2012,09,24,17,24,17.10
2012,09,24,17,25,17.10
2012,09,24,17,26,17.10
2012,09,24,17,27,17.10
2012,09,24,17,28,17.10
2012,09,24,17,29,17.10
2012,09,24,17,30,17.10
2012,09,24,17,31,17.10
2012,09,24,17,32,17.00
2012,09,24,17,33,17.00
2012,09,24,17,34,16.90
2012,09,24,17,35,16.90
2012,09,24,17,36,16.90
2012,09,24,17,37,16.90
2012,09,24,17,38,16.90
2012,09,24,17,39,17.00
2012,09,24,17,40,17.00
2012,09,24,17,41,16.90